Regional Weather Roundup
Issued by NWS

Home | Current Version | Previous Version | Graphics & Text | Print | Product List | Glossary On
Versions: 1 2 3 4 5 6 7 8 9 10 11 12 13 14 15 16 17 18 19 20 21 22 23 24 25 26 27 28 29 30 31 32 33 34 35 36 37 38 39 40 41 42 43 44 45 46 47 48 49 50
000
ASUS43 KOAX 181710
RWRNE

WEATHER ROUNDUP FOR NEBRASKA
NATIONAL WEATHER SERVICE OMAHA NE
1200 PM CDT FRI AUG 18 2017

NOTES: SATELLITE DATA IS BEING USED TO AUGMENT CLOUD COVER ABOVE
       12000 FEET.
       "FAIR" INDICATES FEW OR NO CLOUDS BELOW 12,000 FEET WITH NO
       SIGNIFICANT WEATHER AND/OR OBSTRUCTIONS TO VISIBILITY.


NEZ001>004-019>022-054>056-181800-
NEBRASKA PANHANDLE

CITY           SKY/WX    TMP DP  RH WIND       PRES   REMARKS
SCOTTSBLUFF    SUNNY     76  49  38 W7        30.14S
ALLIANCE       SUNNY     79  52  38 NW12      30.12S
CHADRON        SUNNY     80  50  34 VRB6      30.08F
GORDON         FAIR      80  47  30 NW12G20   30.08S
KIMBALL        SUNNY     78  46  32 SW5       30.20F
SIDNEY         SUNNY     81  44  27 N5        30.17S
$$

NEZ057>060-069>072-079>082-181800-
SOUTHWEST NEBRASKA

CITY           SKY/WX    TMP DP  RH WIND       PRES   REMARKS
NORTH PLATTE   SUNNY     78  64  61 W7        30.05F
IMPERIAL       SUNNY     79  56  45 N10       30.09S
LEXINGTON      SUNNY     77  64  63 NW9       30.03S
MCCOOK         SUNNY     80  61  52 N10       30.04R
OGALLALA       SUNNY     79  51  37 NW6       30.10S
$$

NEZ005>010-023>029-035>040-094-181800-
NORTH CENTRAL NEBRASKA

CITY           SKY/WX    TMP DP  RH WIND       PRES   REMARKS
VALENTINE      SUNNY     82  50  32 NW13      30.00S
AINSWORTH      SUNNY     79  58  47 NW9       30.00F
BROKEN BOW     SUNNY     83  55  38 NW10      30.01F
O`NEILL        SUNNY     78  63  59 W8        29.97S
ORD            SUNNY     79  59  50 NW7       29.97F
THEDFORD       SUNNY     80  57  45 NW10      30.05S
$$

NEZ041-046>049-061>064-073>077-083>087-181800-
SOUTH CENTRAL NEBRASKA

CITY           SKY/WX    TMP DP  RH WIND       PRES   REMARKS
GRAND ISLAND   SUNNY     79  64  60 W5        29.99S
AURORA         SUNNY     78  64  62 W6        29.98F
HASTINGS       SUNNY     79  62  56 W6        30.00S
HEBRON         SUNNY     83  63  51 W7        29.97F
HOLDREGE       SUNNY     76  61  61 NW6       30.01F
KEARNEY        SUNNY     79  61  53 W8        30.01S
YORK           SUNNY     75  66  73 CALM      29.98S
$$

NEZ011>018-030>034-042>045-181800-
NORTHEAST NEBRASKA

CITY           SKY/WX    TMP DP  RH WIND       PRES   REMARKS
NORFOLK        SUNNY     76  63  64 NW7       29.94F
ALBION         MOSUNNY   77  63  61 W6        29.98S
BLAIR          SUNNY     78  63  61 NW7       29.95F
COLUMBUS       SUNNY     77  62  59 W8        29.97F
FREMONT        SUNNY     77  63  61 W5        29.96S
TEKAMAH        SUNNY     80  63  55 W5        29.93F
WAYNE          SUNNY     75  65  70 W5        29.96R
$$

NEZ050>053-065>068-078-088>093-181800-
SOUTHEAST NEBRASKA

CITY           SKY/WX    TMP DP  RH WIND       PRES   REMARKS
LINCOLN        SUNNY     81  63  54 MISG      29.96F
OMAHA EPPLEY   MOSUNNY   83  60  45 N10       29.93F
BEATRICE       PTSUNNY   80  65  61 NW6       29.96F
FALLS CITY     SUNNY     86  63  45 NW13      29.92S
NEBRASKA CITY  SUNNY     80  65  61 N3        29.95F
PLATTSMOUTH    SUNNY     79  62  56 NW6       29.95F
$$

NEZ044-045-051>053-067-181800-
OMAHA AREA

CITY           SKY/WX    TMP DP  RH WIND       PRES   REMARKS
OMAHA EPPLEY   MOSUNNY   83  60  45 N10       29.93F
BLAIR          SUNNY     78  63  61 NW7       29.95F
FREMONT        SUNNY     77  63  61 W5        29.96S
MILLARD        SUNNY     82  63  52 NW8       29.94F
OFFUTT AFB     SUNNY     84  59  42 N8        29.93F
PLATTSMOUTH    SUNNY     79  62  56 NW6       29.95F
WAHOO          FAIR      78  65  65 CALM      29.95F
$$




USA.gov is the U.S. government's official web portal to all federal, state and local government web resources and services.